TAM3280 KPDX-CYQQ

Flight info

Callsign TAM3280
Flight time 0h 58m
Altitude 36000
Route ARRIE DCT TOU
Aircraft A359/H-SDE2E3GHIJ3J4J5LM1ORWXY/LB1D1

Departure

Time 2026-04-14 21:37
Airport Portland International Airport (KPDX)

Arrival

Time 2026-04-14 22:36
Airport Comox Valley International Airport / CFB Comox (CYQQ)
Time Latitude Longitude Altitude Speed Heading
2026-04-14 21:17 45.58525 -122.59112 37 ft 0 kts 64°
2026-04-14 21:25 45.58524 -122.59112 37 ft 1 kts 64°
2026-04-14 21:26 45.58517 -122.59133 36 ft 3 kts 44°
2026-04-14 21:26 45.58499 -122.59146 36 ft 3 kts 332°
2026-04-14 21:26 45.58494 -122.59143 35 ft 0 kts 310°
2026-04-14 21:27 45.58508 -122.59166 37 ft 7 kts 313°
2026-04-14 21:27 45.58560 -122.59250 37 ft 15 kts 309°
2026-04-14 21:28 45.58633 -122.59383 40 ft 19 kts 308°
2026-04-14 21:28 45.58711 -122.59549 38 ft 22 kts 300°
2026-04-14 21:28 45.58792 -122.59756 42 ft 25 kts 298°
2026-04-14 21:28 45.58883 -122.59996 40 ft 29 kts 298°
2026-04-14 21:29 45.58980 -122.60244 37 ft 26 kts 299°
2026-04-14 21:29 45.59103 -122.60253 39 ft 22 kts 36°
2026-04-14 21:29 45.59213 -122.60090 39 ft 25 kts 50°
2026-04-14 21:29 45.59339 -122.59902 39 ft 21 kts 45°
2026-04-14 21:30 45.59403 -122.59753 41 ft 17 kts 72°
2026-04-14 21:30 45.59365 -122.59585 41 ft 19 kts 118°
2026-04-14 21:30 45.59301 -122.59416 44 ft 20 kts 118°
2026-04-14 21:30 45.59233 -122.59238 47 ft 21 kts 118°
2026-04-14 21:31 45.59163 -122.59059 49 ft 22 kts 120°
2026-04-14 21:31 45.59084 -122.58865 49 ft 23 kts 121°
2026-04-14 21:31 45.58998 -122.58649 45 ft 26 kts 119°
2026-04-14 21:31 45.58909 -122.58416 45 ft 27 kts 118°
2026-04-14 21:32 45.58817 -122.58178 49 ft 27 kts 119°
2026-04-14 21:32 45.58724 -122.57943 51 ft 27 kts 119°
2026-04-14 21:32 45.58629 -122.57700 48 ft 29 kts 120°
2026-04-14 21:32 45.58525 -122.57440 43 ft 31 kts 120°
2026-04-14 21:33 45.58419 -122.57164 44 ft 32 kts 118°
2026-04-14 21:33 45.58314 -122.56897 48 ft 29 kts 120°
2026-04-14 21:33 45.58274 -122.56758 47 ft 0 kts 76°
2026-04-14 21:35 45.58277 -122.56747 46 ft 4 kts 70°
2026-04-14 21:35 45.58311 -122.56698 45 ft 10 kts 27°
2026-04-14 21:35 45.58373 -122.56737 45 ft 10 kts 301°
2026-04-14 21:36 45.58376 -122.56744 45 ft 0 kts 301°
2026-04-14 21:37 45.58407 -122.56817 46 ft 37 kts 301°
2026-04-14 21:37 45.58702 -122.57573 46 ft 135 kts 299°
2026-04-14 21:37 45.59338 -122.59159 309 ft 222 kts 295°
2026-04-14 21:37 45.60185 -122.61316 1338 ft 276 kts 295°
2026-04-14 21:38 45.61202 -122.63954 2182 ft 333 kts 294°
2026-04-14 21:38 45.62268 -122.66976 3730 ft 333 kts 286°
2026-04-14 21:38 45.63090 -122.69985 5013 ft 327 kts 293°
2026-04-14 21:38 45.64594 -122.72432 6179 ft 335 kts 318°
2026-04-14 21:39 45.66731 -122.73736 7359 ft 339 kts 344°
2026-04-14 21:39 45.69109 -122.73613 8684 ft 339 kts
2026-04-14 21:39 45.71345 -122.72699 10023 ft 328 kts 11°
2026-04-14 21:39 45.73532 -122.71894 10979 ft 325 kts
2026-04-14 21:40 45.75812 -122.71507 11399 ft 336 kts 355°
2026-04-14 21:40 45.78174 -122.71659 11908 ft 342 kts 346°
2026-04-14 21:40 45.80520 -122.72207 12605 ft 342 kts 341°
2026-04-14 21:40 45.82848 -122.72980 13296 ft 345 kts 338°
2026-04-14 21:41 45.85178 -122.73855 13965 ft 348 kts 337°
2026-04-14 21:41 45.87534 -122.74765 14561 ft 352 kts 336°
2026-04-14 21:41 45.89910 -122.75671 15163 ft 356 kts 337°
2026-04-14 21:41 45.92316 -122.76561 15800 ft 359 kts 337°
2026-04-14 21:42 45.94748 -122.77434 16537 ft 359 kts 338°
2026-04-14 21:42 45.97169 -122.78281 17405 ft 356 kts 338°
2026-04-14 21:42 45.99570 -122.79110 18281 ft 355 kts 337°
2026-04-14 21:42 46.02004 -122.79964 18616 ft 367 kts 337°
2026-04-14 21:43 46.04511 -122.80853 19047 ft 373 kts 337°
2026-04-14 21:43 46.07047 -122.81749 19566 ft 376 kts 337°
2026-04-14 21:43 46.09588 -122.82642 20124 ft 379 kts 337°
2026-04-14 21:43 46.12131 -122.83533 20677 ft 381 kts 337°
2026-04-14 21:44 46.14712 -122.84438 21212 ft 383 kts 336°
2026-04-14 21:44 46.17318 -122.85355 21712 ft 386 kts 336°
2026-04-14 21:44 46.19934 -122.86286 22218 ft 389 kts 336°
2026-04-14 21:44 46.22559 -122.87216 22737 ft 391 kts 336°
2026-04-14 21:45 46.25226 -122.88160 23262 ft 394 kts 336°
2026-04-14 21:45 46.27907 -122.89107 23752 ft 397 kts 336°
2026-04-14 21:45 46.30604 -122.90061 24188 ft 400 kts 336°
2026-04-14 21:45 46.33310 -122.91018 24644 ft 402 kts 336°
2026-04-14 21:46 46.36033 -122.91983 25109 ft 403 kts 336°
2026-04-14 21:46 46.38768 -122.92954 25585 ft 405 kts 336°
2026-04-14 21:46 46.41515 -122.93932 26065 ft 407 kts 336°
2026-04-14 21:46 46.44273 -122.94915 26577 ft 409 kts 336°
2026-04-14 21:47 46.47050 -122.95906 27129 ft 411 kts 335°
2026-04-14 21:47 46.49790 -122.96884 27685 ft 413 kts 335°
2026-04-14 21:47 46.52632 -122.97899 28314 ft 415 kts 335°
2026-04-14 21:47 46.55449 -122.98908 28918 ft 418 kts 335°
2026-04-14 21:48 46.58288 -122.99926 29498 ft 421 kts 335°
2026-04-14 21:48 46.61138 -123.00950 30099 ft 424 kts 335°
2026-04-14 21:48 46.63960 -123.01965 30595 ft 427 kts 335°
2026-04-14 21:48 46.66860 -123.03006 31138 ft 429 kts 335°
2026-04-14 21:49 46.69767 -123.04050 31695 ft 431 kts 335°
2026-04-14 21:49 46.72677 -123.05097 32219 ft 434 kts 335°
2026-04-14 21:49 46.75638 -123.06165 32727 ft 437 kts 335°
2026-04-14 21:49 46.78598 -123.07235 33186 ft 440 kts 334°
2026-04-14 21:50 46.81584 -123.08317 33626 ft 444 kts 334°
2026-04-14 21:50 46.84627 -123.09419 34049 ft 447 kts 334°
2026-04-14 21:50 46.87666 -123.10520 34432 ft 450 kts 334°
2026-04-14 21:50 46.90676 -123.11611 34808 ft 453 kts 335°
2026-04-14 21:51 46.93754 -123.12727 35178 ft 456 kts 335°
2026-04-14 21:51 46.96840 -123.13848 35581 ft 457 kts 335°
2026-04-14 21:51 46.99931 -123.14968 35929 ft 458 kts 335°
2026-04-14 21:51 47.03001 -123.16075 36010 ft 450 kts 335°
2026-04-14 21:52 47.09005 -123.18239 35984 ft 443 kts 335°
2026-04-14 21:52 47.15000 -123.20448 36159 ft 449 kts 335°
2026-04-14 21:53 47.17827 -123.21497 36565 ft 450 kts 335°
2026-04-14 21:53 47.20867 -123.22618 37098 ft 450 kts 335°
2026-04-14 21:53 47.23904 -123.23733 37579 ft 450 kts 335°
2026-04-14 21:53 47.26954 -123.24856 37913 ft 453 kts 336°
2026-04-14 21:54 47.33068 -123.27104 37979 ft 453 kts 336°
2026-04-14 21:54 47.39198 -123.29363 37979 ft 454 kts 336°
2026-04-14 21:55 47.45334 -123.31632 37975 ft 455 kts 336°
2026-04-14 21:55 47.51470 -123.33909 37970 ft 455 kts 336°
2026-04-14 21:56 47.57620 -123.36199 37965 ft 455 kts 336°
2026-04-14 21:56 47.63770 -123.38489 37962 ft 456 kts 336°
2026-04-14 21:57 47.69933 -123.40789 37957 ft 457 kts 336°
2026-04-14 21:57 47.76101 -123.43100 37947 ft 457 kts 336°
2026-04-14 21:58 47.82244 -123.45530 37930 ft 452 kts 331°
2026-04-14 21:58 47.87116 -123.49342 37918 ft 430 kts 314°
2026-04-14 21:59 47.89263 -123.52259 37913 ft 419 kts 304°
2026-04-14 21:59 47.91001 -123.55693 37914 ft 411 kts 295°
2026-04-14 21:59 47.93841 -123.63031 37920 ft 409 kts 293°
2026-04-14 22:00 47.96560 -123.70512 37908 ft 408 kts 293°
2026-04-14 22:00 47.99268 -123.77956 37906 ft 408 kts 293°
2026-04-14 22:01 48.01994 -123.85391 37904 ft 408 kts 293°
2026-04-14 22:01 48.04723 -123.92825 37911 ft 408 kts 293°
2026-04-14 22:02 48.07448 -124.00260 37832 ft 405 kts 293°
2026-04-14 22:02 48.08778 -124.03887 37585 ft 394 kts 293°
2026-04-14 22:02 48.10089 -124.07462 37083 ft 389 kts 292°
2026-04-14 22:03 48.11383 -124.11014 36451 ft 387 kts 292°
2026-04-14 22:03 48.12663 -124.14543 35852 ft 384 kts 292°
2026-04-14 22:03 48.13929 -124.18034 35269 ft 381 kts 291°
2026-04-14 22:03 48.14766 -124.20342 34874 ft 378 kts 291°
2026-04-14 22:04 48.16018 -124.23795 34251 ft 376 kts 291°
2026-04-14 22:04 48.17657 -124.28322 33317 ft 373 kts 291°
2026-04-14 22:04 48.18494 -124.30633 32841 ft 370 kts 291°
2026-04-14 22:04 48.19715 -124.34009 32181 ft 368 kts 290°
2026-04-14 22:05 48.20930 -124.37379 31470 ft 369 kts 290°
2026-04-14 22:05 48.22148 -124.40775 30764 ft 371 kts 290°
2026-04-14 22:05 48.23377 -124.44194 30150 ft 367 kts 290°
2026-04-14 22:05 48.24584 -124.47539 29566 ft 363 kts 290°
2026-04-14 22:06 48.25776 -124.50852 29054 ft 360 kts 290°
2026-04-14 22:06 48.26975 -124.54155 28564 ft 361 kts 291°
2026-04-14 22:06 48.28423 -124.57282 28070 ft 370 kts 299°
2026-04-14 22:06 48.30272 -124.60043 27591 ft 388 kts 309°
2026-04-14 22:07 48.32641 -124.62322 27358 ft 421 kts 321°
2026-04-14 22:07 48.35539 -124.63792 27356 ft 453 kts 336°
2026-04-14 22:07 48.38707 -124.64464 27364 ft 464 kts 341°
2026-04-14 22:07 48.41919 -124.64971 27359 ft 464 kts 341°
2026-04-14 22:08 48.45057 -124.65474 27100 ft 455 kts 341°
2026-04-14 22:08 48.48186 -124.65996 26162 ft 453 kts 341°
2026-04-14 22:08 48.51365 -124.66567 24853 ft 462 kts 342°
2026-04-14 22:08 48.54564 -124.67146 23836 ft 464 kts 342°
2026-04-14 22:09 48.57450 -124.67658 23194 ft 458 kts 343°
2026-04-14 22:09 48.60488 -124.68193 22667 ft 446 kts 343°
2026-04-14 22:09 48.63528 -124.68730 22222 ft 433 kts 343°
2026-04-14 22:09 48.66476 -124.69257 21798 ft 420 kts 343°
2026-04-14 22:10 48.69342 -124.69774 21392 ft 410 kts 343°
2026-04-14 22:10 48.72107 -124.70269 21072 ft 389 kts 343°
2026-04-14 22:10 48.74804 -124.70764 20758 ft 391 kts 343°
2026-04-14 22:10 48.77492 -124.71263 20461 ft 388 kts 343°
2026-04-14 22:11 48.80159 -124.71756 20148 ft 386 kts 343°
2026-04-14 22:11 48.82818 -124.72247 19843 ft 384 kts 343°
2026-04-14 22:11 48.85465 -124.72733 19556 ft 382 kts 344°
2026-04-14 22:11 48.88101 -124.73217 19247 ft 381 kts 344°
2026-04-14 22:12 48.90728 -124.73700 18937 ft 380 kts 344°
2026-04-14 22:12 48.93352 -124.74185 18644 ft 378 kts 344°
2026-04-14 22:12 48.95954 -124.74660 18355 ft 377 kts 344°
2026-04-14 22:12 48.98556 -124.75135 18058 ft 376 kts 345°
2026-04-14 22:13 49.01148 -124.75611 17637 ft 374 kts 345°
2026-04-14 22:13 49.03723 -124.76085 17235 ft 372 kts 345°
2026-04-14 22:13 49.06283 -124.76557 16834 ft 369 kts 345°
2026-04-14 22:13 49.08824 -124.77025 16430 ft 366 kts 345°
2026-04-14 22:14 49.11351 -124.77492 16030 ft 364 kts 345°
2026-04-14 22:14 49.13863 -124.77956 15635 ft 362 kts 346°
2026-04-14 22:14 49.16359 -124.78417 15247 ft 360 kts 346°
2026-04-14 22:14 49.18841 -124.78878 14863 ft 358 kts 346°
2026-04-14 22:15 49.21310 -124.79337 14484 ft 355 kts 346°
2026-04-14 22:15 49.23758 -124.79792 14119 ft 353 kts 346°
2026-04-14 22:15 49.26194 -124.80244 13755 ft 351 kts 347°
2026-04-14 22:15 49.28620 -124.80696 13347 ft 350 kts 347°
2026-04-14 22:16 49.31025 -124.81144 12935 ft 348 kts 347°
2026-04-14 22:16 49.33394 -124.81584 12540 ft 346 kts 347°
2026-04-14 22:16 49.35806 -124.82035 12135 ft 344 kts 347°
2026-04-14 22:16 49.38182 -124.82481 11733 ft 342 kts 347°
2026-04-14 22:17 49.40543 -124.82926 11345 ft 342 kts 347°
2026-04-14 22:17 49.42897 -124.83367 10955 ft 340 kts 347°
2026-04-14 22:17 49.45236 -124.83805 10577 ft 338 kts 348°
2026-04-14 22:17 49.47565 -124.84239 10201 ft 336 kts 348°
2026-04-14 22:18 49.49888 -124.84671 9973 ft 335 kts 348°
2026-04-14 22:18 49.52190 -124.85103 9962 ft 326 kts 348°
2026-04-14 22:18 49.54368 -124.85499 9958 ft 307 kts 348°
2026-04-14 22:18 49.56459 -124.85885 9934 ft 298 kts 347°
2026-04-14 22:19 49.58487 -124.86269 9540 ft 293 kts 347°
2026-04-14 22:19 49.62590 -124.86686 8413 ft 300 kts
2026-04-14 22:19 49.64580 -124.85862 8013 ft 298 kts 15°
2026-04-14 22:20 49.66544 -124.84841 7572 ft 296 kts 16°
2026-04-14 22:20 49.68500 -124.83809 7145 ft 293 kts 15°
2026-04-14 22:20 49.70385 -124.82720 6713 ft 292 kts 23°
2026-04-14 22:20 49.71981 -124.80819 6352 ft 291 kts 50°
2026-04-14 22:21 49.73041 -124.78231 6186 ft 278 kts 62°
2026-04-14 22:21 49.73902 -124.75628 6051 ft 266 kts 64°
2026-04-14 22:21 49.74719 -124.73125 5916 ft 256 kts 64°
2026-04-14 22:21 49.75507 -124.70709 5754 ft 249 kts 64°
2026-04-14 22:22 49.76281 -124.68333 5483 ft 246 kts 66°
2026-04-14 22:22 49.76646 -124.65786 5188 ft 240 kts 96°
2026-04-14 22:22 49.76180 -124.63417 4977 ft 226 kts 127°
2026-04-14 22:22 49.75062 -124.61843 4777 ft 213 kts 157°
2026-04-14 22:23 49.73713 -124.60956 4577 ft 210 kts 163°
2026-04-14 22:23 49.72340 -124.60214 4339 ft 209 kts 165°
2026-04-14 22:23 49.70958 -124.59501 4118 ft 208 kts 165°
2026-04-14 22:23 49.69593 -124.58809 3854 ft 205 kts 165°
2026-04-14 22:24 49.68200 -124.58654 3599 ft 201 kts 194°
2026-04-14 22:24 49.67002 -124.59722 3568 ft 203 kts 222°
2026-04-14 22:24 49.66038 -124.61341 3545 ft 205 kts 227°
2026-04-14 22:24 49.65239 -124.63173 3542 ft 210 kts 245°
2026-04-14 22:25 49.65116 -124.65417 3542 ft 216 kts 277°
2026-04-14 22:25 49.65543 -124.67663 3545 ft 219 kts 285°
2026-04-14 22:25 49.66077 -124.69870 3538 ft 220 kts 287°
2026-04-14 22:25 49.66623 -124.72075 3539 ft 220 kts 287°
2026-04-14 22:26 49.67169 -124.74277 3530 ft 220 kts 287°
2026-04-14 22:26 49.67715 -124.76480 3530 ft 220 kts 287°
2026-04-14 22:26 49.68127 -124.78735 3530 ft 217 kts 275°
2026-04-14 22:26 49.68213 -124.81040 3525 ft 214 kts 266°
2026-04-14 22:27 49.68209 -124.83315 3528 ft 213 kts 266°
2026-04-14 22:27 49.68193 -124.85596 3535 ft 214 kts 266°
2026-04-14 22:27 49.68178 -124.87932 3529 ft 214 kts 266°
2026-04-14 22:27 49.68157 -124.90241 3535 ft 214 kts 266°
2026-04-14 22:28 49.68132 -124.92538 3542 ft 214 kts 266°
2026-04-14 22:28 49.68100 -124.94840 3539 ft 214 kts 266°
2026-04-14 22:28 49.68262 -124.97132 3533 ft 216 kts 282°
2026-04-14 22:28 49.68962 -124.99171 3528 ft 222 kts 309°
2026-04-14 22:29 49.70225 -125.00585 3529 ft 224 kts 329°
2026-04-14 22:29 49.71626 -125.01679 3529 ft 226 kts 331°
2026-04-14 22:29 49.73033 -125.02759 3527 ft 227 kts 330°
2026-04-14 22:29 49.74442 -125.03860 3320 ft 226 kts 331°
2026-04-14 22:30 49.75836 -125.04950 3042 ft 225 kts 331°
2026-04-14 22:30 49.77239 -125.06049 2762 ft 225 kts 332°
2026-04-14 22:30 49.78624 -125.07138 2483 ft 224 kts 332°
2026-04-14 22:30 49.80024 -125.08238 2276 ft 223 kts 332°
2026-04-14 22:31 49.81460 -125.09122 2237 ft 220 kts 347°
2026-04-14 22:31 49.82904 -125.09126 2234 ft 198 kts 14°
2026-04-14 22:31 49.84013 -125.08103 2245 ft 188 kts 54°
2026-04-14 22:31 49.84332 -125.06227 2210 ft 180 kts 101°
2026-04-14 22:32 49.83666 -125.04675 2231 ft 176 kts 148°
2026-04-14 22:32 49.82576 -125.03867 2234 ft 173 kts 154°
2026-04-14 22:32 49.81493 -125.03030 2250 ft 173 kts 154°
2026-04-14 22:32 49.80430 -125.02154 2223 ft 175 kts 152°
2026-04-14 22:33 49.79427 -125.01086 2032 ft 174 kts 142°
2026-04-14 22:33 49.78520 -124.99841 1783 ft 174 kts 138°
2026-04-14 22:33 49.77682 -124.98620 1564 ft 162 kts 138°
2026-04-14 22:33 49.76907 -124.97479 1365 ft 147 kts 137°
2026-04-14 22:34 49.76201 -124.96431 1202 ft 137 kts 138°
2026-04-14 22:34 49.75531 -124.95406 1031 ft 134 kts 136°
2026-04-14 22:34 49.74873 -124.94397 857 ft 134 kts 138°
2026-04-14 22:34 49.74217 -124.93401 708 ft 133 kts 137°
2026-04-14 22:35 49.73560 -124.92401 526 ft 131 kts 136°
2026-04-14 22:35 49.72920 -124.91423 360 ft 127 kts 136°
2026-04-14 22:35 49.72298 -124.90467 191 ft 123 kts 137°
2026-04-14 22:35 49.71694 -124.89548 97 ft 121 kts 137°
2026-04-14 22:36 49.71242 -124.88864 94 ft 51 kts 135°
2026-04-14 22:36 49.71153 -124.88729 96 ft 15 kts 135°
2026-04-14 22:36 49.71011 -124.88520 101 ft 36 kts 144°
2026-04-14 22:36 49.70852 -124.88485 98 ft 0 kts 227°
2026-04-14 22:37 49.70844 -124.88544 97 ft 17 kts 270°
2026-04-14 22:37 49.70888 -124.88661 98 ft 16 kts 320°
2026-04-14 22:37 49.71030 -124.88844 97 ft 38 kts 316°
2026-04-14 22:37 49.71232 -124.89148 93 ft 27 kts 313°
2026-04-14 22:38 49.71368 -124.89363 95 ft 33 kts 314°
2026-04-14 22:38 49.71556 -124.89649 97 ft 42 kts 317°
2026-04-14 22:38 49.71758 -124.89941 94 ft 33 kts 316°
2026-04-14 22:38 49.71804 -124.90074 93 ft 0 kts 261°
2026-04-14 22:39 49.71803 -124.90075 92 ft 0 kts 256°
2026-04-14 22:39 49.71798 -124.90082 96 ft 1 kts 222°
2026-04-14 22:39 49.71778 -124.90082 93 ft 6 kts 174°
2026-04-14 22:39 49.71707 -124.90071 94 ft 15 kts 174°
2026-04-14 22:40 49.71647 -124.90059 92 ft 2 kts 172°
2026-04-14 22:40 49.71605 -124.90070 93 ft 7 kts 218°
2026-04-14 22:40 49.71601 -124.90094 91 ft 2 kts 273°
2026-04-14 22:40 49.71620 -124.90133 91 ft 0 kts 293°
2026-04-14 22:41 49.71622 -124.90142 91 ft 0 kts 288°
2026-04-14 22:41 49.71624 -124.90151 91 ft 0 kts 288°